Nichiryu Maru — JG5632 — position and weather

sailwx.info

Track history (hours):
 
Tides and Currents Weather Stations Pressure Air Temp Water Temp Dewpoint Dewpoint Depression Visibility Wind Speed Wind Dir Waves Ship Positions

Nichiryu Maru

Last reported at 2014-Nov-21 08:10 UTC. Time now 2014-Nov-22 14:21 UTC.
Position N 34°34' E 134°49'.

Length 158 m; draft 6.5 m.

Type: Cargo ship. MMSI: 43100939.

Date/timePositionNaut miles runAvg speedWind from/ knotsBaromVisibWave heightAir tempDewpointWater temp
2014-Nov-21 08:10N 34°34' E 134°49'1117.8
2014-Nov-21 07:33N 34°37' E 135°02'1010.3
2014-Nov-21 06:33N 34°41' E 135°14'0 0.2
2014-Nov-21 05:21N 34°41' E 135°13'0 0.0
2014-Nov-21 04:33N 34°41' E 135°13'0 0.1
2014-Nov-21 03:33N 34°41' E 135°14'1111.4
2014-Nov-21 02:33N 34°29' E 135°13'1717.3
2014-Nov-21 01:33N 34°16' E 134°59'1818.4
2014-Nov-21 00:33N 33°58' E 135°00'24116.6
2014-Nov-20 10:03N 35°06' E 139°41'816.8
2014-Nov-20 09:33N 35°14' E 139°46'8 5.7
2014-Nov-20 08:10N 35°19' E 139°39'0 0.0
2014-Nov-20 07:31N 35°19' E 139°39'0 0.0
2014-Nov-20 05:25N 35°19' E 139°39'0 0.0
2014-Nov-20 04:31N 35°19' E 139°39'3 3.6
2014-Nov-20 03:33N 35°18' E 139°43'1312.5
2014-Nov-20 02:33N 35°06' E 139°45'  
2014-Nov-17 11:23N 35°03' E 139°37'1316.0
2014-Nov-17 10:33N 35°14' E 139°46'8 7.4
2014-Nov-17 09:29N 35°19' E 139°39'0 0.0
2014-Nov-17 08:32N 35°19' E 139°39'0 0.0
2014-Nov-17 07:26N 35°19' E 139°39'0 0.0
2014-Nov-17 06:32N 35°19' E 139°39'0 0.0
2014-Nov-17 05:32N 35°19' E 139°39'0 0.0
2014-Nov-17 04:32N 35°19' E 139°39'0 0.0
2014-Nov-17 03:14N 35°19' E 139°39'0 0.0
2014-Nov-17 02:26N 35°19' E 139°39'0 0.0
2014-Nov-17 01:17N 35°19' E 139°39'0 0.0
2014-Nov-17 00:32N 35°19' E 139°39'0 0.0
2014-Nov-16 23:32N 35°19' E 139°39'6 5.7
2014-Nov-16 22:33N 35°17' E 139°45'1514.2
2014-Nov-16 21:29N 35°02' E 139°42'  
2014-Nov-14 07:33N 34°36' E 135°03'10 9.9
2014-Nov-14 06:33N 34°41' E 135°14'0 0.1
2014-Nov-14 05:19N 34°41' E 135°13'0 0.0
2014-Nov-14 04:31N 34°41' E 135°13'6 6.7
2014-Nov-14 03:33N 34°34' E 135°16'2019.6
2014-Nov-14 02:33N 34°19' E 135°01'2019.8
2014-Nov-14 01:32N 33°59' E 135°01'24416.3
2014-Nov-13 10:32N 35°08' E 139°45'1111.6
2014-Nov-13 09:33N 35°19' E 139°40'1 0.6
2014-Nov-13 08:22N 35°19' E 139°39'0 0.0
2014-Nov-13 07:19N 35°19' E 139°39'0 0.0
2014-Nov-13 06:28N 35°19' E 139°39'0 0.0
2014-Nov-13 05:25N 35°19' E 139°39'0 0.0
2014-Nov-13 04:31N 35°19' E 139°39'4 4.2
2014-Nov-13 03:33N 35°19' E 139°44'  
Track history (hours):
 
Tides and Currents Weather Stations Pressure Air Temp Water Temp Dewpoint Dewpoint Depression Visibility Wind Speed Wind Dir Waves Ship Positions

Nichiryu Maru

Last reported at 2014-Nov-21 08:10 UTC. Time now 2014-Nov-22 14:21 UTC.
Position N 34°34' E 134°49'.

Length 158 m; draft 6.5 m.

Type: Cargo ship. MMSI: 43100939.

Date/timePositionNaut miles runAvg speedWind from/ knotsBaromVisibWave heightAir tempDewpointWater temp
2014-Nov-21 08:10N 34°34' E 134°49'1117.8
2014-Nov-21 07:33N 34°37' E 135°02'1010.3
2014-Nov-21 06:33N 34°41' E 135°14'0 0.2
2014-Nov-21 05:21N 34°41' E 135°13'0 0.0
2014-Nov-21 04:33N 34°41' E 135°13'0 0.1
2014-Nov-21 03:33N 34°41' E 135°14'1111.4
2014-Nov-21 02:33N 34°29' E 135°13'1717.3
2014-Nov-21 01:33N 34°16' E 134°59'1818.4
2014-Nov-21 00:33N 33°58' E 135°00'24116.6
2014-Nov-20 10:03N 35°06' E 139°41'816.8
2014-Nov-20 09:33N 35°14' E 139°46'8 5.7
2014-Nov-20 08:10N 35°19' E 139°39'0 0.0
2014-Nov-20 07:31N 35°19' E 139°39'0 0.0
2014-Nov-20 05:25N 35°19' E 139°39'0 0.0
2014-Nov-20 04:31N 35°19' E 139°39'3 3.6
2014-Nov-20 03:33N 35°18' E 139°43'1312.5
2014-Nov-20 02:33N 35°06' E 139°45'  
2014-Nov-17 11:23N 35°03' E 139°37'1316.0
2014-Nov-17 10:33N 35°14' E 139°46'8 7.4
2014-Nov-17 09:29N 35°19' E 139°39'0 0.0
2014-Nov-17 08:32N 35°19' E 139°39'0 0.0
2014-Nov-17 07:26N 35°19' E 139°39'0 0.0
2014-Nov-17 06:32N 35°19' E 139°39'0 0.0
2014-Nov-17 05:32N 35°19' E 139°39'0 0.0
2014-Nov-17 04:32N 35°19' E 139°39'0 0.0
2014-Nov-17 03:14N 35°19' E 139°39'0 0.0
2014-Nov-17 02:26N 35°19' E 139°39'0 0.0
2014-Nov-17 01:17N 35°19' E 139°39'0 0.0
2014-Nov-17 00:32N 35°19' E 139°39'0 0.0
2014-Nov-16 23:32N 35°19' E 139°39'6 5.7
2014-Nov-16 22:33N 35°17' E 139°45'1514.2
2014-Nov-16 21:29N 35°02' E 139°42'  
2014-Nov-14 07:33N 34°36' E 135°03'10 9.9
2014-Nov-14 06:33N 34°41' E 135°14'0 0.1
2014-Nov-14 05:19N 34°41' E 135°13'0 0.0
2014-Nov-14 04:31N 34°41' E 135°13'6 6.7
2014-Nov-14 03:33N 34°34' E 135°16'2019.6
2014-Nov-14 02:33N 34°19' E 135°01'2019.8
2014-Nov-14 01:32N 33°59' E 135°01'24416.3
2014-Nov-13 10:32N 35°08' E 139°45'1111.6
2014-Nov-13 09:33N 35°19' E 139°40'1 0.6
2014-Nov-13 08:22N 35°19' E 139°39'0 0.0
2014-Nov-13 07:19N 35°19' E 139°39'0 0.0
2014-Nov-13 06:28N 35°19' E 139°39'0 0.0
2014-Nov-13 05:25N 35°19' E 139°39'0 0.0
2014-Nov-13 04:31N 35°19' E 139°39'4 4.2
2014-Nov-13 03:33N 35°19' E 139°44'  

Dump ship's entire track history